[[{"header":{"parameterUnit":"m.s-1","parameterCategory":2,"la1":30.2991,"la2":30.254,"lo1":-89.0895,"lo2":-89.0444,"dy":0.0017,"dx":0.0017,"nx":28,"ny":28,"refTime":"2025-07-13T03:00:00:Z","depth":"0","parameterNumber":2,"parameterNumberName":"U-component_of_CURRENTS"},"data":[0,0,0,0,0,0,0,0,0,0,0,0,0,0,0,0,0,0,0,0,0,0,0,0,0,0,0,0,0,0,0,0,0,0,0,0,0,0,0,0,0,0,0,0,0,0,0,0,0,0,0,0,0,0,0,0,0,0,0.4127,0.4131,0,0.4416,0.4419,0.4422,0.439,0.4386,0.4382,0.4378,0.4274,0.4276,0.4277,0,0,0,0,0,0,0,0,0,0,0,0,0,0.3725,0.3731,0.4127,0.4131,0.4135,0.4416,0.4419,0.4423,0.4391,0.4386,0.4381,0.4376,0.4274,0.4275,0.4277,0,0,0,0,0,0,0,0,0,0,0,0,0,0.3941,0.3733,0.4126,0.4156,0.4162,0.4415,0.4419,0.4424,0.4392,0.4386,0.4379,0.4374,0.4274,0.4275,0.4277,0.4414,0,0,0.4282,0.4283,0,0,0,0,0,0,0,0,0.3928,0.3955,0.4148,0.4154,0.4161,0.4364,0.424,0.4403,0.4394,0.43,0.4378,0.437,0.4275,0.4277,0.4345,0.4409,0.4405,0.4282,0.4284,0.4284,0.4285,0,0,0,0,0,0,0,0.3913,0.3943,0.4237,0.4153,0.4161,0.4216,0.4238,0.4273,0.4309,0.4308,0.4307,0.4348,0.4275,0.4344,0.4341,0.4403,0.4282,0.4284,0.4285,0.4286,0.4499,0.4504,0,0,0,0,0,0,0.3885,0.393,0.4228,0.4246,0.4032,0.4228,0.4252,0.4302,0.4317,0.4318,0.4354,0.4346,0.4344,0.4339,0.4337,0.443,0.4284,0.4286,0.4287,0.4495,0.4501,0.4506,0,0,0,0,0,0,0.3876,0.391,0.4216,0.4096,0.4139,0.4241,0.4298,0.4311,0.437,0.4357,0.4347,0.4395,0.4339,0.4334,0.4379,0.4426,0.4287,0.4288,0.4489,0.4497,0.4503,0.4659,0,0,0,0,0,0,0.3863,0.3905,0.3951,0.4095,0.4145,0.4394,0.4305,0.4322,0.4407,0.4399,0.4391,0.4376,0.4333,0.4377,0.4381,0.4426,0.429,0.4484,0.4493,0.4501,0.4648,0.467,0.4689,0,0,0,0,0,0.3848,0.396,0.3952,0.3989,0.4199,0.44,0.4433,0.4478,0.4415,0.4494,0.4462,0.4376,0.4432,0.4384,0.4387,0.4433,0.4479,0.449,0.45,0.4638,0.4666,0.4689,0,0,0,0,0,0,0.3829,0.3973,0.3965,0.4115,0.4247,0.4395,0.4492,0.4501,0.4554,0.4515,0.4454,0.4444,0.4505,0.4469,0.4416,0.4525,0.4437,0.4448,0.4541,0.4566,0.4587,0.4556,0.4291,0,0,0,0,0,0.3843,0.395,0.4087,0.4212,0.4277,0.4377,0.4463,0.4492,0.4557,0.4575,0.4563,0.4545,0.4569,0.4558,0.4588,0.4656,0.463,0.4685,0.4706,0.4723,0.4706,0.4783,0.4809,0.454,0.454,0.4539,0,0,0.3867,0.3967,0.4023,0.4214,0.431,0.4431,0.4414,0.4564,0.4622,0.4553,0.4623,0.4636,0.4612,0.4689,0.4709,0.4645,0.4788,0.4737,0.4751,0.4723,0.4797,0.4822,0.4845,0.4547,0.4545,0.4544,0,0,0.3997,0.4061,0.419,0.4294,0.4454,0.451,0.4547,0.4691,0.4712,0.4812,0.4761,0.4807,0.4847,0.4846,0.484,0.5001,0.4917,0.5005,0.5059,0.5137,0.5158,0.5177,0.5171,0.5188,0.499,0.499,0.4991,0,0.4007,0.4171,0.4267,0.4408,0.4477,0.4532,0.4648,0.4719,0.4844,0.4863,0.4836,0.4935,0.4919,0.4982,0.5028,0.5042,0.5046,0.4958,0.5161,0.5179,0.5195,0.5185,0.5201,0.4999,0.4998,0.4997,0.4996,0,0.4231,0.433,0.4426,0.4571,0.4673,0.4797,0.4872,0.4944,0.4947,0.4994,0.5087,0.5117,0.515,0.5176,0.5138,0.525,0.5202,0.5198,0.5087,0.5231,0.5211,0.5226,0.5012,0.5009,0.5006,0.5004,0,0,0.4291,0.4523,0.4541,0.4591,0.4744,0.4843,0.4934,0.5039,0.506,0.5172,0.5219,0.531,0.5316,0.5313,0.5306,0.5358,0.548,0.532,0.532,0.5293,0.5603,0.534,0.5329,0.5522,0.5526,0.5529,0.5538,0,0.4405,0.4641,0.4723,0.4867,0.4968,0.5003,0.5077,0.5158,0.5194,0.5256,0.5301,0.5358,0.5368,0.5381,0.5457,0.5465,0.5526,0.5473,0.5483,0.5481,0.5215,0.5341,0.5013,0.4975,0.5551,0.5553,0.5555,0,0.4566,0.4691,0.4863,0.4961,0.5004,0.5075,0.5135,0.5213,0.5292,0.5322,0.5399,0.5425,0.551,0.5502,0.562,0.5587,0.5613,0.5624,0.5626,0.5325,0.5245,0.4929,0.4978,0.4842,0.5576,0.5574,0.5573,0,0.4547,0.4751,0.4862,0.4912,0.5064,0.5098,0.5147,0.523,0.5265,0.5349,0.5372,0.5495,0.5513,0.5626,0.5646,0.5653,0.5742,0.5753,0.5548,0.5528,0.5213,0.5156,0.5102,0.587,0.587,0.587,0.587,0,0.4614,0.469,0.4852,0.4913,0.4999,0.5089,0.5142,0.5208,0.5271,0.5297,0.5394,0.5419,0.5552,0.5605,0.5668,0.5613,0.5774,0.5555,0.5526,0.5255,0.5205,0.5038,0.5043,0.587,0.587,0.587,0.587,0,0.4592,0.47,0.4827,0.4973,0.5003,0.506,0.5131,0.5165,0.5224,0.5252,0.5278,0.5367,0.5404,0.5499,0.5609,0.5564,0.5404,0.5542,0.5156,0.508,0.4692,0.4718,0.4486,0.4389,0.5296,0.529,0.5285,0,0.4615,0.4692,0.4852,0.491,0.4971,0.5043,0.5083,0.5143,0.5153,0.5201,0.5202,0.524,0.5218,0.5235,0.5169,0.517,0.5173,0.4864,0.4816,0.4608,0.4622,0.4541,0.4477,0.4477,0.4466,0.4456,0.4449,0,0.467,0.4722,0.4842,0.4924,0.4975,0.5005,0.5041,0.5028,0.5061,0.5042,0.4994,0.4971,0.4907,0.4683,0.463,0.4627,0.4571,0.4663,0.4592,0.4073,0.3844,0.3753,0.4503,0.4365,0.4374,0.438,0.4384,0.4388,0.4718,0.4788,0.4909,0.4952,0.4978,0.4914,0.4838,0.4832,0.4755,0.4606,0.4735,0.4521,0.4325,0.4148,0.4118,0.3769,0.3961,0.3631,0.371,0.367,0.3465,0.3965,0.3703,0.3707,0.3711,0.3714,0.3717,0,0.4779,0.4841,0.4913,0.4912,0.4815,0.4842,0.476,0.4587,0.437,0.4283,0.4168,0.3798,0.3514,0.338,0.3035,0.2857,0.2819,0.2797,0.2669,0.2689,0.3232,0.308,0.2493,0.2493,0.2493,0.2493,0.2493,0.2494,0.4842,0.4899,0.4885,0.4719,0.4655,0.4387,0.4265,0.4031,0.3868,0.3441,0.3133,0.3073,0.292,0.2635,0.2331,0.2273,0.2218,0.1989,0.2192,0.2617,0.2703,0.2785,0.2642,0.1972,0.1972,0.1452,0.1449,0.1446]},{"header":{"parameterUnit":"m.s-1","parameterCategory":2,"la1":30.2991,"la2":30.254,"lo1":-89.0895,"lo2":-89.0444,"dy":0.0017,"dx":0.0017,"nx":28,"ny":28,"refTime":"2025-07-13T03:00:00:Z","depth":"0","parameterNumber":3,"parameterNumberName":"V-component_of_CURRENTS"},"data":[0,0,0,0,0,0,0,0,0,0,0,0,0,0,0,0,0,0,0,0,0,0,0,0,0,0,0,0,0,0,0,0,0,0,0,0,0,0,0,0,0,0,0,0,0,0,0,0,0,0,0,0,0,0,0,0,0,0,0.0201,0.02,0,0.0157,0.0157,0.0156,0.0124,0.0123,0.0123,0.0123,0.0221,0.0224,0.0227,0,0,0,0,0,0,0,0,0,0,0,0,0,0.0237,0.0236,0.0201,0.02,0.0199,0.0157,0.0157,0.0156,0.0124,0.0123,0.0123,0.0122,0.022,0.0223,0.0227,0,0,0,0,0,0,0,0,0,0,0,0,0,0.0212,0.0236,0.0201,0.0177,0.0174,0.0157,0.0157,0.0156,0.0124,0.0123,0.0123,0.0122,0.0219,0.0223,0.0227,0.0269,0,0,0.0241,0.0243,0,0,0,0,0,0,0,0,0.0213,0.0211,0.0181,0.0178,0.0175,0.0144,0.0205,0.02,0.0124,0.0145,0.0122,0.0122,0.0208,0.0213,0.0207,0.0274,0.0278,0.0242,0.0245,0.0246,0.0248,0,0,0,0,0,0,0,0.0215,0.0212,0.0185,0.018,0.0177,0.0161,0.0157,0.0203,0.0185,0.0143,0.014,0.0133,0.0207,0.0202,0.0209,0.0279,0.0242,0.0246,0.0248,0.025,0.0411,0.0413,0,0,0,0,0,0,0.0219,0.0214,0.0187,0.0184,0.0191,0.0161,0.0157,0.0156,0.0181,0.0182,0.0133,0.0131,0.0195,0.0204,0.0213,0.0315,0.0246,0.0251,0.0253,0.041,0.0412,0.0413,0,0,0,0,0,0,0.022,0.0217,0.0188,0.0196,0.0191,0.0161,0.016,0.0155,0.0152,0.0172,0.0176,0.0135,0.0195,0.0206,0.0253,0.0317,0.0253,0.0257,0.0408,0.041,0.0413,0.0488,0,0,0,0,0,0,0.0221,0.0218,0.0223,0.0197,0.0191,0.0188,0.0161,0.0155,0.0147,0.0144,0.0175,0.0182,0.0195,0.0246,0.0258,0.0322,0.026,0.0406,0.0409,0.0412,0.0483,0.0492,0.05,0,0,0,0,0,0.0223,0.0235,0.0223,0.022,0.0197,0.0189,0.0185,0.0162,0.0148,0.0155,0.0169,0.0182,0.0273,0.0251,0.0264,0.0331,0.0405,0.0408,0.0412,0.0479,0.049,0.05,0,0,0,0,0,0,0.0246,0.0232,0.0219,0.0224,0.021,0.0183,0.0185,0.0169,0.0181,0.0182,0.0198,0.0208,0.0271,0.0285,0.026,0.0383,0.0344,0.035,0.0391,0.0402,0.041,0.0444,0.0264,0,0,0,0,0,0.0255,0.0266,0.0241,0.0246,0.024,0.0214,0.0208,0.0192,0.0194,0.0196,0.0217,0.025,0.0297,0.0332,0.0362,0.0437,0.0446,0.0488,0.0496,0.0503,0.0539,0.0612,0.0631,0.0425,0.0425,0.0425,0,0,0.0264,0.0258,0.0263,0.0253,0.0239,0.0251,0.021,0.0205,0.0231,0.0212,0.0262,0.0275,0.0316,0.0388,0.0421,0.0412,0.0554,0.0508,0.0514,0.0546,0.0618,0.0638,0.0656,0.0427,0.0427,0.0426,0,0,0.0292,0.0283,0.0302,0.0301,0.0286,0.0277,0.0279,0.0261,0.027,0.0309,0.0309,0.0362,0.0417,0.0472,0.0506,0.0585,0.0584,0.0587,0.0682,0.0752,0.0771,0.0787,0.077,0.0785,0.0608,0.0608,0.0608,0,0.0298,0.0321,0.0305,0.0324,0.0332,0.0296,0.032,0.0331,0.0334,0.0377,0.0337,0.0455,0.0471,0.0605,0.0618,0.0612,0.0614,0.0641,0.0766,0.0783,0.0798,0.0778,0.0793,0.0612,0.0611,0.0611,0.0611,0,0.0343,0.036,0.0371,0.0392,0.0404,0.0414,0.0423,0.0452,0.0454,0.0478,0.058,0.0598,0.0683,0.069,0.0678,0.0813,0.076,0.0755,0.0744,0.0824,0.0795,0.081,0.0618,0.0616,0.0615,0.0614,0,0,0.0344,0.0393,0.0395,0.0427,0.0439,0.0458,0.0521,0.0582,0.0659,0.0674,0.0793,0.085,0.0863,0.0902,0.0905,0.0961,0.1032,0.0907,0.0909,0.0895,0.1127,0.1043,0.105,0.1049,0.1054,0.1057,0.1043,0,0.0374,0.0436,0.0454,0.052,0.055,0.0569,0.0643,0.0705,0.0755,0.0862,0.0918,0.1012,0.0946,0.0993,0.1046,0.1047,0.1083,0.1033,0.1049,0.1048,0.0971,0.1071,0.1013,0.0994,0.1057,0.1059,0.1061,0,0.0402,0.0445,0.0515,0.0609,0.0626,0.0671,0.0798,0.0861,0.1002,0.105,0.1159,0.1191,0.1296,0.1216,0.1279,0.1246,0.12,0.1177,0.1177,0.1097,0.0996,0.0935,0.1018,0.0933,0.1082,0.1081,0.1079,0,0.0416,0.0488,0.0555,0.0578,0.0676,0.0736,0.0795,0.0924,0.1022,0.1179,0.127,0.1379,0.1442,0.1442,0.1373,0.1341,0.1411,0.1362,0.1238,0.1227,0.1185,0.1165,0.1205,0.1418,0.1418,0.1418,0.1418,0,0.0442,0.0495,0.0569,0.0609,0.0723,0.0772,0.0921,0.1002,0.1159,0.1314,0.137,0.1504,0.1506,0.1537,0.1453,0.1388,0.1473,0.1285,0.1254,0.1199,0.1181,0.1109,0.1055,0.1418,0.1418,0.1418,0.1418,0,0.0458,0.0496,0.0585,0.0692,0.0732,0.0817,0.0982,0.1106,0.122,0.1426,0.1485,0.1619,0.1654,0.1605,0.1596,0.1483,0.1365,0.1372,0.1258,0.1215,0.1009,0.0961,0.0973,0.0952,0.1252,0.125,0.1249,0,0.0481,0.0524,0.0643,0.0717,0.0769,0.0895,0.1005,0.1132,0.127,0.1501,0.1618,0.1708,0.1808,0.1729,0.1556,0.1405,0.1324,0.1219,0.1169,0.1026,0.0951,0.0921,0.0902,0.1108,0.1106,0.1104,0.1102,0,0.0542,0.0574,0.0658,0.0789,0.09,0.1037,0.1191,0.1307,0.1484,0.1646,0.1856,0.1946,0.1864,0.1717,0.1475,0.1356,0.1148,0.1172,0.1102,0.0925,0.0825,0.0778,0.1021,0.1085,0.1086,0.1088,0.1089,0.1089,0.0598,0.0666,0.0766,0.0888,0.1017,0.1176,0.1311,0.1475,0.1685,0.1942,0.2006,0.2136,0.1861,0.1547,0.1364,0.0972,0.103,0.0852,0.0821,0.0816,0.0773,0.0933,0.0918,0.0918,0.0919,0.092,0.092,0,0.0679,0.0751,0.087,0.1024,0.1163,0.1216,0.1446,0.1579,0.1816,0.2018,0.2189,0.208,0.177,0.142,0.0887,0.0663,0.0615,0.0559,0.0528,0.0542,0.0752,0.0722,0.0571,0.0571,0.0571,0.0571,0.0571,0.0571,0.0738,0.0848,0.0891,0.1109,0.1231,0.1428,0.1565,0.1741,0.1903,0.2089,0.2135,0.2169,0.1861,0.1017,0.0508,0.0412,0.0331,0.0252,0.0269,0.0404,0.043,0.0455,0.0418,0.0205,0.0204,0.0073,0.0071,0.007]}],[{"header":{"parameterUnit":"m.s-1","parameterCategory":2,"la1":30.2991,"la2":30.254,"lo1":-89.0895,"lo2":-89.0444,"dy":0.0017,"dx":0.0017,"nx":28,"ny":28,"refTime":"2025-07-13T03:00:00:Z","depth":"2","parameterNumber":2,"parameterNumberName":"U-component_of_CURRENTS"},"data":[0,0,0,0,0,0,0,0,0,0,0,0,0,0,0,0,0,0,0,0,0,0,0,0,0,0,0,0,0,0,0,0,0,0,0,0,0,0,0,0,0,0,0,0,0,0,0,0,0,0,0,0,0,0,0,0,0,0,0.2647,0.2647,0,0.2707,0.2708,0.2709,0.2758,0.2758,0.2758,0.2758,0.2979,0.2984,0.299,0,0,0,0,0,0,0,0,0,0,0,0,0,0.2558,0.256,0.2647,0.2647,0.2648,0.2707,0.2708,0.2709,0.2758,0.2758,0.2758,0.2758,0.2977,0.2983,0.299,0,0,0,0,0,0,0,0,0,0,0,0,0,0.2608,0.2561,0.2647,0.2677,0.268,0.2707,0.2708,0.271,0.2758,0.2758,0.2758,0.2758,0.2974,0.2983,0.2991,0.3038,0,0,0.3017,0.3021,0,0,0,0,0,0,0,0,0.2606,0.2612,0.2672,0.2675,0.2678,0.2722,0.2758,0.2826,0.2757,0.2731,0.2758,0.2759,0.2906,0.292,0.2933,0.3048,0.3057,0.3018,0.3023,0.3027,0.3029,0,0,0,0,0,0,0,0.2602,0.261,0.2674,0.2672,0.2676,0.2682,0.269,0.277,0.2821,0.2734,0.2736,0.2738,0.2909,0.2924,0.2939,0.3061,0.3018,0.3025,0.3031,0.3034,0.3211,0.3211,0,0,0,0,0,0,0.2589,0.2607,0.2672,0.2675,0.2638,0.2683,0.2692,0.271,0.2817,0.2831,0.2738,0.274,0.2909,0.2928,0.2947,0.3138,0.3027,0.3035,0.304,0.3212,0.3211,0.3211,0,0,0,0,0,0,0.2587,0.2595,0.2669,0.2639,0.2648,0.2684,0.2704,0.2711,0.2771,0.2818,0.2836,0.2795,0.291,0.2935,0.3052,0.3143,0.3038,0.3046,0.3212,0.3212,0.3211,0.3439,0,0,0,0,0,0,0.2585,0.2595,0.2606,0.2638,0.2649,0.2675,0.2704,0.2712,0.2767,0.2772,0.2873,0.289,0.2912,0.3039,0.306,0.3152,0.3053,0.3213,0.3212,0.3211,0.3432,0.3447,0.3459,0,0,0,0,0,0.2582,0.2587,0.2607,0.2614,0.2664,0.2675,0.2681,0.2709,0.277,0.2773,0.2871,0.2889,0.3046,0.3048,0.3073,0.3169,0.3213,0.3212,0.3211,0.3426,0.3444,0.3459,0,0,0,0,0,0,0.2567,0.2593,0.2615,0.2634,0.265,0.2681,0.2687,0.2742,0.2822,0.2854,0.2929,0.2952,0.3079,0.3064,0.3064,0.3194,0.3116,0.312,0.327,0.3287,0.33,0.3298,0.306,0,0,0,0,0,0.2566,0.2583,0.2602,0.2627,0.2625,0.2678,0.2696,0.2727,0.2795,0.2832,0.2913,0.2986,0.3084,0.3141,0.3185,0.3294,0.3298,0.3343,0.3357,0.3369,0.337,0.3529,0.3562,0.3208,0.3208,0.3208,0,0,0.2564,0.2591,0.2597,0.2625,0.2643,0.2668,0.269,0.2722,0.2788,0.2848,0.2974,0.3053,0.3116,0.323,0.328,0.3246,0.3448,0.3368,0.3381,0.3374,0.3532,0.3568,0.36,0.3207,0.3208,0.3208,0,0,0.2593,0.2593,0.2622,0.2625,0.2655,0.2676,0.2701,0.2755,0.2809,0.2926,0.3005,0.3149,0.3244,0.3345,0.3406,0.3512,0.3516,0.3494,0.3595,0.3752,0.3785,0.3815,0.3797,0.3824,0.3505,0.3506,0.3506,0,0.2602,0.2637,0.2629,0.2658,0.2668,0.2695,0.2732,0.2785,0.289,0.2967,0.2967,0.3233,0.3308,0.353,0.3561,0.3564,0.3578,0.3563,0.3784,0.3813,0.384,0.3815,0.3842,0.3516,0.3515,0.3514,0.3513,0,0.2661,0.267,0.2677,0.2728,0.2741,0.2754,0.2806,0.287,0.2954,0.3035,0.3245,0.3373,0.3542,0.3585,0.3628,0.3859,0.3778,0.38,0.3777,0.3892,0.3853,0.3877,0.3532,0.3528,0.3525,0.3522,0,0,0.2744,0.2719,0.2732,0.2736,0.2768,0.2788,0.2885,0.2982,0.3099,0.3218,0.3408,0.3615,0.3718,0.3787,0.389,0.4022,0.4231,0.3998,0.4001,0.4033,0.4466,0.4064,0.4049,0.433,0.4337,0.4342,0.4341,0,0.2801,0.2815,0.2826,0.2866,0.2851,0.2891,0.2983,0.3089,0.3193,0.3365,0.3554,0.3763,0.3787,0.3938,0.4085,0.4224,0.4313,0.422,0.4297,0.4295,0.3977,0.4073,0.3827,0.3778,0.4364,0.4368,0.4371,0,0.2876,0.2863,0.287,0.2895,0.2909,0.2977,0.3113,0.3205,0.342,0.3519,0.3752,0.3897,0.4182,0.4167,0.445,0.4396,0.4437,0.4487,0.449,0.4055,0.3941,0.3763,0.3799,0.441,0.4407,0.4404,0.4401,0,0.2882,0.2913,0.2907,0.2903,0.294,0.3024,0.3108,0.3278,0.3395,0.3667,0.3794,0.4098,0.4286,0.4455,0.4535,0.4558,0.4727,0.4783,0.442,0.4386,0.415,0.4082,0.4939,0.4939,0.4939,0.4939,0.4939,0,0.288,0.2889,0.2919,0.2893,0.2997,0.3047,0.3219,0.3328,0.3546,0.3709,0.3916,0.409,0.4382,0.4501,0.4573,0.4505,0.4768,0.4425,0.4392,0.4197,0.4136,0.4669,0.4637,0.4939,0.4939,0.4939,0.4939,0,0.2819,0.2826,0.2834,0.2904,0.297,0.3051,0.3273,0.3404,0.3577,0.3803,0.3921,0.4156,0.4289,0.4398,0.4608,0.4491,0.4514,0.4398,0.4027,0.3946,0.4056,0.4036,0.4077,0.4064,0.4052,0.4043,0.4035,0,0.2739,0.2724,0.283,0.291,0.2954,0.3107,0.324,0.3424,0.3557,0.3817,0.3925,0.4098,0.4125,0.4123,0.4059,0.399,0.4205,0.3623,0.3626,0.402,0.3986,0.3983,0.3978,0.3402,0.3389,0.3379,0.3371,0,0.2615,0.2687,0.2724,0.2866,0.3016,0.3146,0.3339,0.341,0.3625,0.3731,0.3805,0.3826,0.3791,0.3571,0.339,0.3352,0.3623,0.3394,0.4042,0.3584,0.3364,0.3334,0.3359,0.3279,0.3289,0.3295,0.33,0.3304,0.2588,0.263,0.2739,0.2879,0.3035,0.315,0.3158,0.3303,0.3379,0.3408,0.3522,0.3364,0.3329,0.29,0.2769,0.268,0.2946,0.2858,0.2902,0.2955,0.2803,0.2568,0.2299,0.2302,0.2305,0.2308,0.231,0,0.2594,0.2688,0.2771,0.2928,0.3018,0.3169,0.3204,0.311,0.3045,0.308,0.2991,0.2592,0.2361,0.2375,0.2088,0.1955,0.2095,0.1887,0.2133,0.222,0.2299,0.2128,0.1438,0.1435,0.1432,0.143,0,0,0.2636,0.2703,0.2732,0.2867,0.3019,0.2984,0.294,0.2769,0.2639,0.239,0.2251,0.2253,0.2286,0.1852,0.1752,0.1574,0.1912,0.1501,0.2206,0.2589,0.2666,0.2849,0.2676,0,0,0,0,0]},{"header":{"parameterUnit":"m.s-1","parameterCategory":2,"la1":30.2991,"la2":30.254,"lo1":-89.0895,"lo2":-89.0444,"dy":0.0017,"dx":0.0017,"nx":28,"ny":28,"refTime":"2025-07-13T03:00:00:Z","depth":"2","parameterNumber":3,"parameterNumberName":"V-component_of_CURRENTS"},"data":[0,0,0,0,0,0,0,0,0,0,0,0,0,0,0,0,0,0,0,0,0,0,0,0,0,0,0,0,0,0,0,0,0,0,0,0,0,0,0,0,0,0,0,0,0,0,0,0,0,0,0,0,0,0,0,0,0,0,-0.009,-0.0091,0,-0.0212,-0.0214,-0.0216,-0.0284,-0.0284,-0.0284,-0.0284,-0.0175,-0.0172,-0.0169,0,0,0,0,0,0,0,0,0,0,0,0,0,0.0006,0.0005,-0.009,-0.0092,-0.0093,-0.0212,-0.0214,-0.0216,-0.0284,-0.0284,-0.0284,-0.0284,-0.0176,-0.0172,-0.0169,0,0,0,0,0,0,0,0,0,0,0,0,0,-0.007,0.0005,-0.009,-0.014,-0.0145,-0.0212,-0.0214,-0.0216,-0.0284,-0.0284,-0.0284,-0.0284,-0.0177,-0.0173,-0.0168,-0.0141,0,0,-0.0155,-0.0153,0,0,0,0,0,0,0,0,-0.0065,-0.0073,-0.0131,-0.0136,-0.0143,-0.0231,-0.014,-0.0179,-0.0284,-0.0234,-0.0284,-0.0284,-0.0171,-0.0167,-0.0196,-0.0136,-0.0131,-0.0155,-0.0152,-0.015,-0.0149,0,0,0,0,0,0,0,-0.006,-0.0069,-0.0141,-0.0132,-0.0139,-0.0182,-0.0193,-0.0149,-0.0198,-0.0238,-0.0243,-0.0253,-0.0172,-0.0201,-0.0193,-0.013,-0.0155,-0.0151,-0.0148,-0.0146,-0.0027,-0.0027,0,0,0,0,0,0,-0.0036,-0.0063,-0.0137,-0.0144,-0.0101,-0.0183,-0.0195,-0.0205,-0.0204,-0.0205,-0.0253,-0.0256,-0.0208,-0.0199,-0.0189,-0.0155,-0.015,-0.0146,-0.0143,-0.0028,-0.0027,-0.0027,0,0,0,0,0,0,-0.0034,-0.0041,-0.0132,-0.0105,-0.0119,-0.0184,-0.0195,-0.0207,-0.0238,-0.0217,-0.0214,-0.0271,-0.0208,-0.0196,-0.0165,-0.0151,-0.0144,-0.014,-0.0029,-0.0028,-0.0027,-0.0085,0,0,0,0,0,0,-0.003,-0.004,-0.0042,-0.0103,-0.012,-0.0156,-0.0195,-0.0209,-0.0243,-0.0248,-0.023,-0.0222,-0.0207,-0.0172,-0.0161,-0.0144,-0.0137,-0.0029,-0.0028,-0.0027,-0.0084,-0.0086,-0.0088,0,0,0,0,0,-0.0026,-0.0027,-0.0041,-0.0051,-0.0119,-0.0155,-0.0167,-0.0216,-0.0243,-0.0247,-0.0254,-0.0222,-0.0157,-0.0169,-0.0156,-0.0137,-0.003,-0.0029,-0.0027,-0.0083,-0.0086,-0.0088,0,0,0,0,0,0,0.0006,-0.0035,-0.0053,-0.0068,-0.01,-0.0165,-0.018,-0.0215,-0.0232,-0.0236,-0.0223,-0.0214,-0.0177,-0.0147,-0.0161,-0.0098,-0.0084,-0.008,-0.013,-0.0132,-0.0135,-0.0104,-0.0133,0,0,0,0,0,0.0016,0.0006,-0.0037,-0.0051,-0.0062,-0.0122,-0.0146,-0.0179,-0.0203,-0.0215,-0.0214,-0.0195,-0.0163,-0.0142,-0.011,-0.0077,-0.0018,-0.0052,-0.0055,-0.0057,-0.0022,0.0098,0.0111,-0.0023,-0.0023,-0.0023,0,0,0.0023,-0.0002,-0.0009,-0.0044,-0.0078,-0.0092,-0.0137,-0.0169,-0.019,-0.019,-0.0213,-0.0198,-0.0155,-0.0131,-0.011,-0.0104,-0.0006,-0.0056,-0.0058,-0.0021,0.0101,0.0115,0.0127,-0.0022,-0.0022,-0.0022,0,0,0.0037,0.0014,0.0015,-0.0004,-0.0043,-0.0077,-0.0081,-0.0143,-0.0175,-0.0195,-0.0195,-0.017,-0.0151,-0.0116,-0.0093,-0.0076,-0.002,-0.0073,-0.0061,0.0054,0.0067,0.0079,0.0093,0.0107,-0.0076,-0.0077,-0.0077,0,0.0044,0.0037,0.0009,0.0007,-0.0012,-0.0063,-0.007,-0.0106,-0.0157,-0.0159,-0.0197,-0.0145,-0.0134,-0.0057,-0.0085,-0.0077,-0.0037,-0.0063,0.0053,0.0067,0.008,0.0093,0.0109,-0.0079,-0.0079,-0.0079,-0.0078,0,0.0065,0.0054,0.0053,0.0035,0.0017,-0.0001,-0.0042,-0.0066,-0.0118,-0.0141,-0.0107,-0.0104,-0.005,-0.0067,-0.0088,0.0013,-0.0004,0.0034,0.0059,0.0091,0.01,0.0118,-0.0083,-0.0082,-0.0081,-0.0081,0,0,0.008,0.0069,0.0067,0.0062,0.0026,0.0012,-0.0007,-0.0026,-0.001,-0.0056,-0.0005,-0.0018,0.0,0.003,0.0032,0.0087,0.0148,0.008,0.0087,0.0089,0.0336,0.0212,0.022,0.021,0.0215,0.0219,0.0275,0,0.0095,0.0107,0.0089,0.0084,0.0081,0.0043,0.004,0.0024,0.0006,0.0049,0.0067,0.0128,0.0038,0.0081,0.0118,0.0187,0.0208,0.0126,0.0311,0.0315,0.0202,0.0243,0.0232,0.0275,0.0293,0.0296,0.0298,0,0.0116,0.0117,0.0127,0.0114,0.0111,0.0101,0.0106,0.0098,0.0151,0.0156,0.022,0.0261,0.0346,0.0277,0.0386,0.034,0.0324,0.0336,0.0341,0.0278,0.023,0.0265,0.0308,0.0329,0.0327,0.0325,0.0323,0,0.0147,0.0135,0.0143,0.0139,0.0129,0.0119,0.0107,0.013,0.0172,0.0265,0.0357,0.0434,0.054,0.0561,0.0536,0.0494,0.0647,0.0618,0.0475,0.0462,0.052,0.0505,0.0693,0.0693,0.0693,0.0693,0.0693,0,0.0168,0.0166,0.0155,0.0164,0.0177,0.0149,0.0193,0.0197,0.0292,0.0426,0.044,0.0604,0.0627,0.0706,0.0631,0.0605,0.0735,0.0494,0.0498,0.0484,0.0467,0.0588,0.0575,0.0695,0.0694,0.0694,0.0694,0,0.0192,0.0192,0.0202,0.0196,0.0195,0.0202,0.0249,0.0318,0.0379,0.0579,0.0646,0.079,0.0892,0.0843,0.0904,0.0752,0.0727,0.0667,0.0579,0.0569,0.0422,0.0406,0.054,0.0536,0.0534,0.0531,0.0529,0,0.0203,0.0217,0.0237,0.0268,0.0258,0.0275,0.0326,0.0361,0.0481,0.0717,0.0869,0.1008,0.1134,0.1093,0.09,0.0739,0.0731,0.0561,0.0472,0.0431,0.0422,0.0409,0.0397,0.05,0.0498,0.0497,0.0495,0,0.022,0.0234,0.0255,0.0337,0.038,0.0447,0.0529,0.0655,0.0784,0.0984,0.1272,0.138,0.129,0.1154,0.0843,0.0719,0.0579,0.0515,0.0623,0.0505,0.039,0.038,0.0372,0.0481,0.0482,0.0483,0.0484,0.0485,0.023,0.0265,0.0329,0.0402,0.0487,0.0645,0.0779,0.093,0.1175,0.146,0.1519,0.1615,0.1376,0.0982,0.0756,0.0468,0.0485,0.0356,0.0365,0.0375,0.0325,0.0209,0.0252,0.0252,0.0252,0.0252,0.0252,0,0.0261,0.0312,0.0397,0.0533,0.0694,0.0714,0.0956,0.1118,0.1466,0.1574,0.1751,0.1503,0.1286,0.1001,0.0547,0.0274,0.0286,0.0199,0.0282,0.0296,0.0309,0.0259,0.0167,0.0166,0.0165,0.0165,0,0,0.028,0.0378,0.0441,0.0697,0.083,0.1084,0.1266,0.1467,0.1579,0.1728,0.1712,0.1637,0.1301,0.0958,0.0639,0.0398,0.0402,0.0345,0.0434,0.0582,0.0599,0.0412,0.0351,0,0,0,0,0]}],[{"header":{"parameterUnit":"m.s-1","parameterCategory":2,"la1":30.2991,"la2":30.254,"lo1":-89.0895,"lo2":-89.0444,"dy":0.0017,"dx":0.0017,"nx":28,"ny":28,"refTime":"2025-07-13T03:00:00:Z","depth":"4","parameterNumber":2,"parameterNumberName":"U-component_of_CURRENTS"},"data":[0,0,0,0,0,0,0,0,0,0,0,0,0,0,0,0,0,0,0,0,0,0,0,0,0,0,0,0,0,0,0,0,0,0,0,0,0,0,0,0,0,0,0,0,0,0,0,0,0,0,0,0,0,0,0,0,0,0,0.0651,0.0649,0,0.053,0.0528,0.0527,0.0518,0.052,0.0521,0.0523,0.0684,0.0687,0.069,0,0,0,0,0,0,0,0,0,0,0,0,0,0.0849,0.0845,0.0651,0.0649,0.0648,0.053,0.0528,0.0526,0.0518,0.052,0.0522,0.0524,0.0683,0.0687,0.069,0,0,0,0,0,0,0,0,0,0,0,0,0,0.0747,0.0844,0.0651,0.0632,0.0629,0.0531,0.0528,0.0526,0.0518,0.052,0.0522,0.0525,0.0682,0.0686,0.069,0.0669,0,0,0.0703,0.0705,0,0,0,0,0,0,0,0,0.0752,0.0739,0.0636,0.0633,0.063,0.0544,0.0657,0.0589,0.0517,0.0557,0.0523,0.0526,0.0664,0.0669,0.0633,0.0676,0.0683,0.0704,0.0706,0.0708,0.0709,0,0,0,0,0,0,0,0.076,0.0744,0.06,0.0634,0.0631,0.0621,0.0609,0.0643,0.0602,0.0554,0.0553,0.0544,0.0664,0.0629,0.0638,0.0686,0.0704,0.0707,0.071,0.0712,0.0966,0.097,0,0,0,0,0,0,0.0778,0.075,0.0604,0.0597,0.0701,0.0616,0.0602,0.0567,0.0595,0.06,0.0542,0.0544,0.0621,0.0633,0.0644,0.0747,0.0708,0.0712,0.0714,0.0962,0.0967,0.0972,0,0,0,0,0,0,0.0782,0.0765,0.0609,0.0675,0.0655,0.061,0.057,0.0563,0.0562,0.0583,0.0594,0.0553,0.0623,0.0638,0.0728,0.0749,0.0714,0.0718,0.0957,0.0964,0.097,0.0873,0,0,0,0,0,0,0.0787,0.0766,0.075,0.0675,0.0652,0.0567,0.0568,0.0559,0.0552,0.0554,0.0596,0.061,0.0626,0.0722,0.0732,0.0754,0.0721,0.0952,0.096,0.0967,0.0871,0.0875,0.0879,0,0,0,0,0,0.0795,0.0742,0.0749,0.0732,0.0629,0.0567,0.0554,0.0529,0.0551,0.054,0.0602,0.0611,0.0782,0.0727,0.0739,0.0762,0.0948,0.0958,0.0967,0.0869,0.0874,0.0879,0,0,0,0,0,0,0.0808,0.0735,0.0741,0.0668,0.064,0.0567,0.054,0.0545,0.0571,0.0592,0.0636,0.0654,0.0742,0.0792,0.0731,0.0877,0.0878,0.089,0.08,0.0806,0.081,0.0801,0.0725,0,0,0,0,0,0.0809,0.0759,0.0707,0.0658,0.0639,0.0604,0.058,0.0571,0.0578,0.0588,0.0621,0.07,0.078,0.0825,0.0883,0.0945,0.0981,0.099,0.0994,0.0996,0.1009,0.1052,0.1057,0.1003,0.1003,0.1003,0,0,0.0797,0.0756,0.0726,0.0661,0.0628,0.0607,0.0594,0.0557,0.0573,0.0609,0.0647,0.07,0.0805,0.0872,0.092,0.0919,0.1041,0.1009,0.1008,0.1021,0.1062,0.1066,0.107,0.101,0.1008,0.1007,0,0,0.0751,0.0718,0.0669,0.0657,0.0623,0.0605,0.0611,0.0564,0.0577,0.0628,0.0672,0.0736,0.085,0.0891,0.0948,0.1023,0.1054,0.1079,0.1081,0.1121,0.1123,0.1125,0.1184,0.1192,0.1083,0.1083,0.1083,0,0.0767,0.0688,0.065,0.0626,0.0626,0.062,0.0605,0.0609,0.061,0.0643,0.0658,0.081,0.0856,0.096,0.0986,0.1019,0.1069,0.1027,0.1114,0.1118,0.1122,0.1181,0.1191,0.108,0.108,0.108,0.1081,0,0.067,0.0658,0.063,0.0612,0.0607,0.0586,0.0602,0.0611,0.065,0.0677,0.0775,0.0821,0.0935,0.0947,0.099,0.1062,0.1098,0.1093,0.1068,0.1119,0.1182,0.1194,0.1075,0.1076,0.1077,0.1078,0,0,0.0623,0.0574,0.0583,0.0596,0.0607,0.0589,0.0632,0.0663,0.0726,0.0747,0.0832,0.0913,0.0954,0.1024,0.106,0.1069,0.1111,0.1099,0.1103,0.11,0.1231,0.1105,0.1107,0.1117,0.1118,0.112,0.1263,0,0.059,0.0535,0.0535,0.0553,0.0538,0.0585,0.0624,0.0674,0.0758,0.0838,0.0895,0.1009,0.0991,0.106,0.1064,0.1126,0.1142,0.1076,0.1236,0.1242,0.1073,0.1115,0.1125,0.1272,0.1274,0.1276,0.1278,0,0.0515,0.0499,0.0477,0.0531,0.0532,0.0562,0.0656,0.0708,0.0837,0.091,0.1023,0.1104,0.1184,0.1142,0.1236,0.1207,0.1227,0.1227,0.1232,0.1156,0.1137,0.1222,0.13,0.1298,0.1297,0.1295,0.1294,0,0.0476,0.0485,0.0468,0.0483,0.0521,0.0559,0.0615,0.0735,0.0802,0.1003,0.109,0.1206,0.1291,0.1322,0.1322,0.1329,0.1369,0.1392,0.1289,0.1282,0.1389,0.1385,0.1429,0.1429,0.1428,0.1428,0.1428,0,0.0436,0.0444,0.0455,0.0457,0.0486,0.0549,0.0645,0.073,0.0872,0.0994,0.1151,0.1251,0.1337,0.1371,0.1368,0.1346,0.1424,0.13,0.1304,0.1354,0.1345,0.1397,0.1392,0.1433,0.1432,0.1431,0.143,0,0.0392,0.0388,0.0396,0.0441,0.0466,0.0508,0.0637,0.071,0.0873,0.1046,0.112,0.1306,0.1415,0.1414,0.1469,0.1405,0.1388,0.1339,0.1389,0.1393,0.1293,0.1282,0.1352,0.1348,0.1346,0.1343,0.1341,0,0.0337,0.033,0.0381,0.0399,0.0431,0.0506,0.0554,0.0699,0.0805,0.1072,0.1142,0.131,0.1422,0.1407,0.1408,0.1391,0.1334,0.1327,0.1317,0.1285,0.1283,0.1277,0.127,0.1337,0.1336,0.1335,0.1334,0,0.0263,0.0297,0.0294,0.0345,0.0399,0.0451,0.0563,0.0621,0.0833,0.0971,0.1186,0.1275,0.1371,0.1408,0.1337,0.1315,0.1348,0.1298,0.1306,0.1298,0.1267,0.1267,0.1264,0.1324,0.1326,0.1327,0.1327,0,0.0213,0.0199,0.0222,0.0275,0.0341,0.0409,0.0469,0.0608,0.0714,0.1023,0.1085,0.1268,0.14,0.1367,0.1311,0.1262,0.1294,0.1252,0.1264,0.1275,0.1162,0.1107,0.1126,0,0,0,0,0,0.0156,0.0137,0.0157,0.0211,0.0294,0.0353,0.0472,0.0545,0.0756,0.0889,0.0994,0.1105,0.1176,0.1234,0.1173,0.123,0.1232,0.1148,0.1174,0.1269,0.128,0.1142,0,0,0,0,0,0,0.0094,0.01,0.0114,0.0168,0.0225,0.0307,0.0395,0.0524,0.061,0.0835,0.0871,0.1031,0.1075,0.1206,0.1159,0.1161,0.1151,0.1225,0.1222,0.1262,0.1273,0.1282,0.1144,0,0,0,0,0]},{"header":{"parameterUnit":"m.s-1","parameterCategory":2,"la1":30.2991,"la2":30.254,"lo1":-89.0895,"lo2":-89.0444,"dy":0.0017,"dx":0.0017,"nx":28,"ny":28,"refTime":"2025-07-13T03:00:00:Z","depth":"4","parameterNumber":3,"parameterNumberName":"V-component_of_CURRENTS"},"data":[0,0,0,0,0,0,0,0,0,0,0,0,0,0,0,0,0,0,0,0,0,0,0,0,0,0,0,0,0,0,0,0,0,0,0,0,0,0,0,0,0,0,0,0,0,0,0,0,0,0,0,0,0,0,0,0,0,0,0.0267,0.0268,0,0.0337,0.0339,0.034,0.0353,0.0352,0.0351,0.0351,0.0291,0.029,0.029,0,0,0,0,0,0,0,0,0,0,0,0,0,0.0174,0.0175,0.0267,0.0268,0.0268,0.0337,0.0339,0.034,0.0353,0.0352,0.0351,0.035,0.0291,0.029,0.029,0,0,0,0,0,0,0,0,0,0,0,0,0,0.0229,0.0176,0.0267,0.0281,0.0282,0.0337,0.0339,0.034,0.0354,0.0352,0.0351,0.035,0.0292,0.0291,0.0289,0.0309,0,0,0.0286,0.0285,0,0,0,0,0,0,0,0,0.0226,0.0233,0.0278,0.028,0.0282,0.0332,0.0284,0.0322,0.0354,0.033,0.0351,0.0349,0.0291,0.029,0.0313,0.0306,0.0304,0.0286,0.0285,0.0285,0.0284,0,0,0,0,0,0,0,0.0222,0.0231,0.0299,0.0279,0.0281,0.0293,0.03,0.0292,0.0318,0.0332,0.0332,0.0335,0.0292,0.0315,0.0311,0.0303,0.0286,0.0285,0.0284,0.0284,0.0206,0.0205,0,0,0,0,0,0,0.0207,0.0227,0.0296,0.03,0.0246,0.0295,0.0303,0.032,0.0321,0.032,0.0336,0.0335,0.0317,0.0313,0.0309,0.034,0.0285,0.0284,0.0283,0.0208,0.0206,0.0204,0,0,0,0,0,0,0.0205,0.0213,0.0293,0.0261,0.0272,0.0298,0.0317,0.0322,0.0346,0.0324,0.0321,0.0354,0.0316,0.0311,0.0314,0.0337,0.0283,0.0282,0.0209,0.0207,0.0205,0.0395,0,0,0,0,0,0,0.0202,0.0213,0.0227,0.0261,0.0273,0.0339,0.0318,0.0324,0.0347,0.0347,0.0338,0.0332,0.0315,0.0316,0.0313,0.0334,0.0281,0.0211,0.0208,0.0206,0.0391,0.04,0.0408,0,0,0,0,0,0.0199,0.0232,0.0228,0.0236,0.0291,0.034,0.0349,0.0364,0.0349,0.0377,0.0365,0.0332,0.0294,0.0317,0.0313,0.0334,0.0212,0.0209,0.0206,0.0387,0.0398,0.0407,0,0,0,0,0,0,0.0202,0.0237,0.0233,0.0275,0.0306,0.0341,0.0369,0.0371,0.0388,0.0382,0.0352,0.0347,0.035,0.0298,0.0323,0.0287,0.0232,0.0228,0.037,0.038,0.0389,0.0376,0.028,0,0,0,0,0,0.0207,0.0242,0.0268,0.0304,0.0319,0.0342,0.0363,0.0375,0.039,0.0398,0.0391,0.0355,0.0334,0.0326,0.0301,0.0307,0.0231,0.0295,0.0304,0.0312,0.029,0.0204,0.0205,0.0194,0.0194,0.0194,0,0,0.0215,0.0241,0.0258,0.0307,0.0331,0.0367,0.0354,0.0397,0.0427,0.0385,0.0424,0.04,0.0339,0.0352,0.0342,0.0316,0.0279,0.0308,0.0318,0.0289,0.0201,0.0202,0.0204,0.0192,0.0193,0.0193,0,0,0.0256,0.0275,0.0314,0.034,0.038,0.0399,0.0409,0.0449,0.0468,0.0509,0.0466,0.0454,0.0444,0.0408,0.0383,0.0408,0.0331,0.0385,0.0433,0.0353,0.0354,0.0354,0.0299,0.0292,0.0388,0.0389,0.0389,0,0.0257,0.0316,0.0335,0.0375,0.0398,0.041,0.045,0.0479,0.0517,0.0526,0.0533,0.0491,0.0466,0.0436,0.0456,0.0435,0.0377,0.0425,0.0371,0.0368,0.0365,0.0308,0.0298,0.0397,0.0396,0.0395,0.0395,0,0.0325,0.0366,0.0395,0.0445,0.0472,0.0518,0.0541,0.0569,0.0592,0.0612,0.0614,0.059,0.0553,0.0545,0.0529,0.0482,0.0448,0.0407,0.0367,0.0379,0.0316,0.0303,0.041,0.0407,0.0404,0.0402,0,0,0.034,0.0424,0.0435,0.0467,0.0513,0.0548,0.0582,0.0623,0.0649,0.0674,0.0683,0.0674,0.0655,0.0617,0.0577,0.0518,0.0492,0.047,0.0462,0.0454,0.0331,0.0339,0.0325,0.0454,0.0452,0.045,0.0313,0,0.0387,0.0474,0.0504,0.0579,0.0616,0.0628,0.0654,0.0682,0.0724,0.074,0.0694,0.0703,0.0682,0.0682,0.0621,0.0502,0.0457,0.0533,0.0281,0.0273,0.0312,0.0309,0.0442,0.0303,0.0299,0.0297,0.0295,0,0.0441,0.0491,0.0576,0.0634,0.0651,0.0702,0.0746,0.079,0.0796,0.0816,0.0804,0.0767,0.0688,0.0673,0.0487,0.0538,0.0453,0.0368,0.036,0.028,0.0256,0.0266,0.027,0.0272,0.0274,0.0276,0.0277,0,0.0447,0.0541,0.0615,0.0639,0.0702,0.0745,0.0793,0.0825,0.0853,0.0884,0.0883,0.0792,0.0737,0.0599,0.044,0.0464,0.0215,0.0221,0.0147,0.0147,0.0101,0.0102,0.0094,0.0094,0.0094,0.0095,0.0095,0,0.0483,0.0542,0.064,0.068,0.0764,0.0797,0.0894,0.0924,0.0935,0.0966,0.0941,0.0897,0.0715,0.0556,0.0424,0.0232,0.0199,0.0141,0.0103,0.0187,0.0198,0.0095,0.0097,0.009,0.0091,0.0092,0.0093,0,0.0484,0.055,0.0644,0.0738,0.0781,0.0859,0.0963,0.1015,0.1034,0.106,0.1055,0.0934,0.0755,0.0556,0.0306,0.0217,0.0031,-0.0022,0.0083,0.0054,0.0029,0.0042,-0.0106,-0.0107,-0.0108,-0.0108,-0.0109,0,0.0498,0.0548,0.069,0.0768,0.0839,0.0959,0.1025,0.1075,0.112,0.108,0.106,0.0898,0.0811,0.0442,0.0257,-0.0008,-0.0027,-0.0104,-0.0026,0.0027,0.0004,0.0018,0.0031,-0.011,-0.0111,-0.0111,-0.0111,0,0.0518,0.0581,0.0648,0.0803,0.0926,0.1032,0.1138,0.1139,0.1177,0.1176,0.1051,0.0892,0.0683,0.0432,0.0219,0.0037,-0.0049,-0.0113,-0.0111,-0.0038,0.0019,0.0001,0.0015,-0.0114,-0.0114,-0.0113,-0.0113,0,0.0531,0.0591,0.0702,0.0833,0.0972,0.1069,0.1124,0.1146,0.1156,0.1099,0.1046,0.0852,0.0729,0.0453,0.0248,0.0071,0.0061,0.0041,0.0035,0.0037,0.0129,0.0227,0.0111,0,0,0,0,0,0.0556,0.0626,0.0732,0.0878,0.0998,0.1088,0.1168,0.1197,0.1211,0.113,0.1083,0.09,0.0613,0.0474,0.0297,0.0251,0.0035,0.0044,0.001,-0.0131,-0.0128,-0.0042,0,0,0,0,0,0,0.0575,0.0679,0.0724,0.0875,0.0974,0.1112,0.1166,0.1172,0.1114,0.1094,0.0921,0.0885,0.0579,0.0705,0.0298,0.0248,0.0212,-0.0084,-0.0087,-0.0133,-0.013,-0.0127,-0.0038,0,0,0,0,0]}]]